* Astronomy

Members Login
Username 
 
Password 
    Remember Me  
Post Info TOPIC: SL-6 rocket booster re-entry


L

Posts: 131433
Date:
SL-6 rocket booster re-entry
Permalink  
 


A SL-6 rocket booster, from a  Molniya 8K78M Launch Vehicle, that was launched from the Russian Plesetsk launch site south of Archangelsk, on the 28th August 1990, for the Cosmos 2097 mission, is predicted to re-enter the Earths atmosphere on the 19th October, 2008 @ 03:53 GMT  ± 18 Hours.

TLE Data
SL-6 RB(2)
1 20770U 90076D 08292.62815420 .99999999 -36587-5 15222-2 0 1743
2 20770 062.8134 009.8928 1388692 240.3423 138.3112 13.35561944135204
1 20770U 90076D 08292.31194259 .05020759 14131-4 62637-4 0 1737
2 20770 062.8446 010.7438 1708330 239.2026 104.0498 12.62565617135160
1 20770U 90076D 08292.23142574 .85309421 -14910-6 18786-2 0 1726
2 20770 062.8311 010.9361 1800331 240.2356 100.4276 12.38729091135154
1 20770U 90076D 08291.94210093 .88627741 -26626-5 47177-3 0 1718
2 20770 062.8325 011.6245 2055488 239.5927 276.9347 11.88315008135116
1 20770U 90076D 08291.90023312 .00442657 29135-5 98950-3 0 1706
2 20770 062.7817 011.7071 2009686 237.3757 102.5406 11.69148858135111


sl6RBb.jpg
Expand (94kb, 854  x 558)

Predicted Location: 58.3° S, 226.1° E
Period: 412.95  
Apogee: 23909
Perigee: 74
Inclination    62.8°
Revolution Number    13527


__________________
Page 1 of 1  sorted by
 
Quick Reply

Please log in to post quick replies.



Create your own FREE Forum
Report Abuse
Powered by ActiveBoard